DMSP 5D-2 F13 DEB, 42268

Orbit data source: Space-Track

DMSP 5D-2 F13 DEB, 42268 is space debris in SSO originally from a launch on Fri, 24 Mar 1995 UTC launched from the Air Force Western Test Range (AFWTR). Debris objects in space refer to the collection of defunct objects orbiting the Earth. Examples of debris include non-operational satellites, rocket bodies, and fragments generated from explosions, collisions, or faulty payload assembly.

Loading next visibility...
Identifier
42268, 1995-015GJ
Orbit
SSO
Country
Flag of USUS
Related business
Manufacturer
Unknown
Mission
Spacecraft
Bus & Motor
Unknown
Mass
Unknown
Launch date (UTC)
1995-03-24 (31 years ago)
Launch vehicle
Unknown
Launch site
Air Force Western Test Range (AFWTR)
Object type
Payload
Rocket body
Debris
Shape & HBR
Unknown shape, 0.1 m
Radar Cross Section
Small (<0.1 m²)

Expand to show TLE details & history
Last TLE update: 15 hours ago

TLE from 15 hours ago
0 DMSP 5D-2 F13 DEB
1 42268U 95015GJ  25340.83777851  .00008574  00000-0  49418-2 0  9994
2 42268  98.7346 181.1759 0116005 175.7916 184.4256 14.05992249540242
Epoch: 2025-12-06T20:06Z
TLE epoch observation values (Epoch: 2025-12-06T20:06:24.063Z)
Latitude
-0.00001°
Longitude
163.71586°
Altitude
959.903 km
Speed
7.329 km/s
True Right ascension
12h 04m 42s
True Declination
0° 00' 00"
Sunlit
Object was in daylight at epoch
Visualization orbit readout
Latitude
Unknown
Longitude
Unknown
Altitude
Unknown
Speed
Unknown
Apparent Right ascension
Unknown
Apparent Declination
Unknown
Sunlit
N/A
Visualization observer readout
Local Sidereal Time
09:10:48
Azimuth
Unknown
Elevation
Unknown
Doppler factor
Unknown
Orbital elements
Apogee altitude
954.382 km
Perigee altitude
786.211 km
Semi-major axis
7,248.434 km
Eccentricity
0.0116
Inclination
98.7346°
RAAN
181.1759°
Arg. of periapsis
175.7916°
True anomaly
184.32449°
Mean anomaly
184.4256°
Eccentric anomaly
184.3749°
Mean motion
3.51704 °/min
Orbital period
102.36 mins
BSTAR
0.0049418

Documentation

Showing up to 5 results
|